Regional Weather Roundup
Issued by NWS Albany, NY

Home | Current Version | Previous Version | Text Only | Print | Product List | Glossary On
Versions: 1 2 3 4 5 6 7 8 9 10 11 12 13 14 15 16 17 18 19 20 21 22 23 24 25 26 27
000
ASUS41 KALY 291310
RWRALY

NEW YORK STATE HOURLY WEATHER ROUNDUP
NATIONAL WEATHER SERVICE ALBANY NY
900 AM EDT SUN MAY 29 2016

NOTE: "FAIR" INDICATES FEW OR NO CLOUDS BELOW 12,000 FEET WITH NO
SIGNIFICANT WEATHER AND/OR NO OBSTRUCTIONS TO VISIBILITY.

NYZ032-033-038>043-046>054-057>066-NYZ062>081-082-084-291400-
EAST


CITY           SKY/WX    TMP DP  RH WIND       PRES   REMARKS
ALBANY         PTSUNNY   77  67  71 S8        30.11S
GLENS FALLS    SUNNY     76  66  71 S5        30.11S
POUGHKEEPSIE   MOSUNNY   79  66  64 SW7       30.11S
NEWBURGH       MOSUNNY   77  68  73 SW9       30.14S
MONTGOMERY     MOSUNNY   77  68  73 SW6       30.12F
WHITE PLAINS   SUNNY     76  61  59 SW5       30.14S
ISLIP          PTSUNNY   74  59  59 SW9       30.15S
NEW YORK CITY  MOSUNNY   80  62  54 S8        30.13F
CENTRAL PARK   SUNNY     77  57  50 CALM      30.17S
$$

NYZ005>009-017-018-044>046-055-056-291400-
CENTRAL


CITY           SKY/WX    TMP DP  RH WIND       PRES   REMARKS
FULTON         PTSUNNY   82  69  64 S5        30.08S
SYRACUSE       PTSUNNY   81  68  64 SW3       30.08R
ROME           SUNNY     77  67  71 E5        30.10S
ELMIRA         MOSUNNY   74  66  76 CALM      30.11F
BINGHAMTON     SUNNY     75  66  73 SW7       30.15S
MONTICELLO     SUNNY     73  68  83 CALM      30.19S
$$

NYZ026>034-041>043-087-291400-
NORTH


CITY           SKY/WX    TMP DP  RH WIND       PRES   REMARKS
WATERTOWN      PTSUNNY   74  67  78 CALM      30.07R
FORT DRUM      NOT AVBL
MASSENA        CLOUDY    65  55  70 NE3       30.10R
SARANAC LAKE   MOSUNNY   73  62  68 CALM      30.13S
PLATTSBURGH    SUNNY     70  60  70 SE3       30.09S
$$

NYZ001>004-010>016-019>021-085-291400-
WEST


CITY           SKY/WX    TMP DP  RH WIND       PRES   REMARKS
NIAGARA FALLS  PTSUNNY   78  66  66 SW10      30.08S
BUFFALO        PTSUNNY   73  65  75 SW7       30.09S
DUNKIRK        MOSUNNY   77  65  66 SW5       30.10S
JAMESTOWN      SUNNY     72  64  78 CALM      30.15S
WELLSVILLE     SUNNY     76  66  71 SW5       30.18S
ROCHESTER      CLOUDY    76  67  73 SW5       30.09S
PENN YAN       PTSUNNY   73  65  75 S6        30.12R
$$

             KEY
       WCI = WIND CHILL INDEX
       VSB = VISIBILITY
       HX  = HEAT INDEX
$$




USA.gov is the U.S. government's official web portal to all federal, state and local government web resources and services.